PBO Station Position Time Series. Reference Frame : NAM14
Format Version,1.1.0
4-character ID,FST5
Station name,Flagstaff_5
Begin Date, 2007-12-07
End Date, 2016-08-04
Release Date, 2019-08-30
Reference position, 35.2217742475 North Latitude, -111.8173972827 East Longitude, 2136.34401 meters elevation,
Date, North (mm), East (mm), Vertical (mm), North Std. Deviation (mm), East Std. Deviation (mm),              Vertical Std. Deviation (mm), Quality,
2007-12-07,0.00, 0.00, 0.00, 2.17, 1.93, 8.41, repro,
2007-12-08,-0.78, 0.84, -5.37, 2.01, 1.78, 7.82, repro,
2007-12-09,-0.94, 1.05, -3.27, 2.26, 2.04, 8.76, repro,
2007-12-10,-0.79, 3.20, -6.69, 2.04, 1.83, 8.04, repro,
2007-12-11,1.48, 3.92, -15.75, 2.61, 2.18, 9.96, repro,
2007-12-12,0.13, 4.51, -8.79, 2.11, 1.83, 8.48, repro,
2007-12-13,-0.04, 2.92, -8.02, 2.01, 1.72, 7.86, repro,
2007-12-14,1.07, 5.22, -6.46, 2.14, 1.80, 8.43, repro,
2007-12-15,1.23, 4.25, 0.31, 2.04, 1.72, 7.90, repro,
2007-12-16,-0.61, 3.91, -4.23, 1.99, 1.68, 7.67, repro,
2007-12-17,-0.23, 4.44, -8.22, 2.02, 1.74, 7.92, repro,
2007-12-18,0.02, 2.28, 1.37, 1.97, 1.68, 7.67, repro,
2007-12-19,0.68, 3.00, 0.54, 1.99, 1.71, 7.66, repro,
2007-12-20,0.99, 3.74, 0.17, 1.97, 1.67, 7.62, repro,
2007-12-21,0.13, 2.79, -4.18, 2.08, 1.72, 7.94, repro,
2007-12-22,-0.43, 2.73, -9.33, 2.03, 1.71, 7.78, repro,
2007-12-23,1.25, 2.59, -4.33, 2.02, 1.76, 7.90, repro,
2007-12-24,1.98, 4.36, -5.21, 2.06, 1.78, 8.06, repro,
2007-12-25,-0.76, 1.80, 3.36, 2.06, 1.78, 7.94, repro,
2007-12-26,0.43, 3.67, -8.37, 2.03, 1.73, 7.90, repro,
2007-12-27,-0.98, 3.47, -0.25, 2.03, 1.74, 7.87, repro,
2007-12-28,0.62, 2.90, -1.14, 2.08, 1.79, 8.04, repro,
2007-12-29,0.81, 3.01, -2.65, 1.98, 1.69, 7.60, repro,
2007-12-30,0.35, 3.45, -3.25, 2.15, 1.91, 8.33, repro,
2007-12-31,0.47, 3.86, -6.32, 2.00, 1.70, 7.74, repro,
2008-01-01,0.76, 4.08, -13.59, 1.99, 1.71, 7.82, repro,
2008-01-02,0.40, 3.99, -12.80, 1.98, 1.66, 7.71, repro,
2008-01-03,1.33, 2.86, -4.76, 2.01, 1.74, 7.69, repro,
2008-01-04,0.98, 3.26, -5.77, 1.94, 1.67, 7.49, repro,
2008-01-05,-0.80, 2.74, -2.01, 1.95, 1.65, 7.52, repro,
2008-01-06,-0.63, 2.38, -0.60, 1.97, 1.67, 7.63, repro,
2008-01-07,0.32, 2.64, 2.12, 1.96, 1.64, 7.48, repro,
2008-01-08,0.25, 3.01, -0.51, 2.04, 1.69, 7.79, repro,
2008-01-09,0.98, 2.91, -4.16, 2.03, 1.72, 7.87, repro,
2008-01-10,1.94, 3.76, -6.31, 1.94, 1.70, 7.63, repro,
2008-01-11,0.46, 2.69, -1.48, 1.94, 1.65, 7.44, repro,
2008-01-12,0.98, 3.60, 0.88, 1.95, 1.67, 7.61, repro,
2008-01-13,0.50, 3.43, -2.29, 1.94, 1.66, 7.40, repro,
2008-01-14,0.74, 3.68, -3.03, 1.95, 1.72, 7.61, repro,
2008-01-15,1.12, 3.38, -4.33, 1.96, 1.69, 7.59, repro,
2008-01-16,1.07, 3.72, -3.74, 1.99, 1.69, 7.72, repro,
2008-01-17,1.20, 4.30, 0.02, 2.01, 1.69, 7.89, repro,
2008-01-18,2.58, 4.12, -2.69, 1.98, 1.75, 7.92, repro,
2008-01-19,0.84, 4.32, -2.45, 1.93, 1.68, 7.55, repro,
2008-01-20,-0.24, 3.68, -3.63, 1.91, 1.66, 7.42, repro,
2008-01-21,1.09, 3.84, -8.17, 1.93, 1.67, 7.48, repro,
2008-01-22,0.12, 3.23, -4.90, 1.92, 1.66, 7.43, repro,
2008-01-23,1.87, 4.07, -5.97, 1.94, 1.69, 7.61, repro,
2008-01-24,1.57, 3.89, -2.41, 1.93, 1.66, 7.38, repro,
2008-01-25,2.20, 3.97, -4.04, 1.98, 1.75, 7.67, repro,
2008-01-26,0.12, 3.77, -4.97, 1.93, 1.65, 7.34, repro,
2008-01-27,0.75, 3.88, -3.94, 1.94, 1.66, 7.38, repro,
2008-01-28,1.49, 4.39, -0.96, 1.95, 1.68, 7.55, repro,
2008-01-29,-0.50, 4.33, -3.15, 2.09, 1.85, 8.06, repro,
2008-01-30,-0.83, 2.61, 2.77, 2.04, 1.73, 7.78, repro,
2008-01-31,0.45, 4.20, -1.35, 1.92, 1.68, 7.52, repro,
2008-02-01,1.70, 3.49, -11.23, 1.92, 1.67, 7.45, repro,
2008-02-02,0.70, 3.79, -7.01, 1.94, 1.67, 7.54, repro,
2008-02-03,1.08, 4.34, -2.69, 1.95, 1.64, 7.51, repro,
2008-02-04,0.86, 4.46, 3.68, 1.91, 1.65, 7.41, repro,
2008-02-05,2.33, 3.31, 2.88, 2.14, 1.86, 8.36, repro,
2008-02-06,2.05, 4.67, -6.20, 2.02, 1.76, 7.75, repro,
2008-02-07,0.83, 3.31, -0.76, 1.94, 1.69, 7.50, repro,
2008-02-08,1.52, 3.86, -1.59, 1.98, 1.68, 7.53, repro,
2008-02-09,1.41, 5.22, -6.45, 1.95, 1.64, 7.42, repro,
2008-02-10,1.35, 4.38, -6.05, 1.91, 1.65, 7.38, repro,
2008-02-11,1.41, 3.33, -1.93, 1.91, 1.67, 7.45, repro,
2008-02-12,1.24, 4.50, -0.26, 1.91, 1.65, 7.38, repro,
2008-02-13,0.77, 4.30, -3.35, 1.94, 1.73, 7.74, repro,
2008-02-14,0.61, 5.49, -3.96, 1.93, 1.66, 7.53, repro,
2008-02-15,0.50, 4.50, 2.21, 1.95, 1.70, 7.53, repro,
2008-02-16,-0.17, 3.55, 2.23, 1.90, 1.64, 7.39, repro,
2008-02-17,0.16, 4.08, -0.63, 1.89, 1.66, 7.42, repro,
2008-02-18,0.77, 4.50, -2.38, 1.92, 1.65, 7.43, repro,
2008-02-19,0.41, 4.61, -4.68, 1.91, 1.66, 7.45, repro,
2008-02-20,-0.36, 3.44, -3.62, 1.94, 1.67, 7.64, repro,
2008-02-21,-0.13, 3.51, -4.12, 1.96, 1.72, 7.64, repro,
2008-02-22,-0.36, 4.16, 2.70, 1.89, 1.63, 7.33, repro,
2008-02-23,0.30, 4.77, -4.74, 1.90, 1.63, 7.32, repro,
2008-02-24,-1.54, 4.72, 0.14, 1.93, 1.66, 7.55, repro,
2008-02-25,1.39, 5.43, -1.79, 1.93, 1.67, 7.50, repro,
2008-02-26,2.06, 4.83, -7.78, 1.93, 1.66, 7.48, repro,
2008-02-27,1.82, 4.25, -13.36, 1.97, 1.69, 7.71, repro,
2008-02-28,0.90, 5.27, -6.90, 1.96, 1.69, 7.68, repro,
2008-02-29,3.45, 4.37, -5.27, 2.87, 2.53, 11.47, repro,
2008-03-01,1.47, 5.44, -7.41, 1.96, 1.68, 7.67, repro,
2008-03-02,1.80, 3.83, 1.19, 1.95, 1.67, 7.56, repro,
2008-03-03,1.36, 4.00, -4.15, 1.94, 1.64, 7.51, repro,
2008-03-04,0.47, 5.10, -1.34, 1.92, 1.65, 7.50, repro,
2008-03-05,0.91, 5.55, 0.53, 1.98, 1.72, 7.63, repro,
2008-03-06,0.44, 6.55, -7.71, 2.37, 2.05, 9.26, repro,
2008-03-07,1.50, 5.12, -7.59, 1.91, 1.65, 7.45, repro,
2008-03-08,2.02, 5.31, -6.00, 2.02, 1.77, 8.06, repro,
2008-03-09,1.89, 4.16, -0.87, 1.98, 1.72, 7.63, repro,
2008-03-10,-0.29, 5.50, -11.20, 2.88, 2.41, 11.19, repro,
2008-03-11,1.69, 6.24, -7.95, 1.93, 1.66, 7.58, repro,
2008-03-12,1.49, 5.92, -0.04, 1.93, 1.68, 7.60, repro,
2008-03-13,1.28, 6.58, 3.79, 1.96, 1.69, 7.71, repro,
2008-03-14,2.89, 8.02, 2.36, 1.97, 1.68, 7.75, repro,
2008-03-15,2.84, 7.49, -3.48, 1.93, 1.66, 7.55, repro,
2008-03-16,0.45, 7.31, 7.81, 1.96, 1.70, 7.71, repro,
2008-03-17,0.72, 7.76, 1.16, 2.03, 1.79, 8.05, repro,
2008-03-18,3.33, 6.76, 0.80, 1.97, 1.72, 7.72, repro,
2008-03-19,1.70, 7.45, 0.09, 1.94, 1.64, 7.45, repro,
2008-03-20,2.82, 7.81, -5.62, 1.96, 1.67, 7.57, repro,
2008-03-21,3.05, 8.31, -8.51, 1.94, 1.67, 7.52, repro,
2008-03-22,1.64, 7.38, -0.93, 1.96, 1.68, 7.68, repro,
2008-03-23,1.80, 8.40, -5.85, 1.94, 1.65, 7.54, repro,
2008-03-24,2.96, 8.30, -4.37, 1.95, 1.67, 7.57, repro,
2008-03-25,2.80, 7.77, 1.17, 2.01, 1.72, 7.65, repro,
2008-03-26,2.17, 5.61, -6.80, 2.02, 1.74, 7.78, repro,
2008-03-27,0.19, 5.53, 3.31, 1.92, 1.62, 7.31, repro,
2008-03-28,1.60, 7.69, -0.49, 2.00, 1.70, 7.71, repro,
2008-03-29,-0.43, 4.90, 2.44, 1.93, 1.63, 7.44, repro,
2008-03-30,3.50, 8.01, 1.67, 1.94, 1.64, 7.46, repro,
2008-03-31,3.86, 7.15, 3.45, 1.96, 1.67, 7.57, repro,
2008-04-01,2.78, 7.56, 0.54, 1.94, 1.66, 7.47, repro,
2008-04-02,1.15, 6.61, 8.12, 1.98, 1.64, 7.60, repro,
2008-04-03,1.30, 5.40, 1.66, 1.96, 1.66, 7.58, repro,
2008-04-04,2.20, 7.01, -2.52, 1.95, 1.64, 7.50, repro,
2008-04-05,2.35, 5.81, 5.35, 1.94, 1.63, 7.38, repro,
2008-04-06,3.15, 5.09, 0.35, 1.94, 1.64, 7.42, repro,
2008-04-07,2.84, 5.48, -1.63, 1.93, 1.64, 7.40, repro,
2008-04-08,1.35, 7.16, 5.29, 1.92, 1.64, 7.43, repro,
2008-04-09,1.74, 5.76, 7.50, 1.94, 1.64, 7.44, repro,
2008-04-10,1.93, 6.06, 7.42, 1.95, 1.65, 7.48, repro,
2008-04-11,2.86, 7.08, -3.09, 1.94, 1.62, 7.29, repro,
2008-04-12,3.32, 7.09, -4.70, 1.96, 1.66, 7.43, repro,
2008-04-13,3.52, 7.43, -8.27, 1.93, 1.63, 7.31, repro,
2008-04-14,2.72, 6.19, -2.06, 2.09, 1.77, 7.96, repro,
2008-04-15,1.72, 7.66, 1.55, 2.07, 1.77, 7.93, repro,
2008-04-16,3.04, 6.84, -1.88, 1.99, 1.72, 7.73, repro,
2008-04-17,3.54, 6.52, -2.40, 2.00, 1.72, 7.73, repro,
2008-04-18,2.58, 7.21, -3.27, 1.93, 1.63, 7.33, repro,
2008-04-19,2.89, 7.54, -4.34, 1.97, 1.63, 7.46, repro,
2008-04-20,1.50, 6.09, 1.03, 1.95, 1.64, 7.43, repro,
2008-04-21,1.59, 5.64, -1.30, 1.94, 1.61, 7.33, repro,
2008-04-22,2.18, 7.13, -1.53, 1.99, 1.66, 7.59, repro,
2008-04-23,3.37, 6.11, -1.85, 2.03, 1.72, 7.73, repro,
2008-04-24,1.55, 5.51, -1.65, 1.96, 1.66, 7.44, repro,
2008-04-25,2.46, 5.75, -4.03, 1.99, 1.61, 7.29, repro,
2008-04-26,2.32, 6.12, -5.70, 2.23, 1.84, 8.31, repro,
2008-04-27,3.07, 7.67, -6.54, 2.03, 1.64, 7.43, repro,
2008-04-28,1.42, 6.29, -4.19, 2.14, 1.75, 8.06, repro,
2008-04-29,1.96, 6.72, -2.88, 2.05, 1.76, 7.60, repro,
2008-04-30,2.56, 6.47, 1.41, 1.99, 1.64, 7.38, repro,
2008-05-01,2.65, 5.28, -1.26, 2.01, 1.65, 7.51, repro,
2008-05-02,3.09, 6.77, -0.36, 2.02, 1.65, 7.49, repro,
2008-05-03,2.10, 6.61, -2.03, 2.01, 1.64, 7.43, repro,
2008-05-04,2.71, 7.98, -2.48, 1.94, 1.61, 7.18, repro,
2008-05-05,2.36, 7.66, -3.74, 2.00, 1.67, 7.52, repro,
2008-05-06,2.46, 7.22, -3.02, 1.99, 1.65, 7.40, repro,
2008-05-07,1.85, 5.89, 1.43, 1.95, 1.61, 7.18, repro,
2008-05-08,3.31, 6.50, -5.84, 2.01, 1.68, 7.44, repro,
2008-05-09,2.03, 7.18, 2.82, 1.99, 1.63, 7.28, repro,
2008-05-10,2.28, 7.04, 0.35, 1.95, 1.62, 7.22, repro,
2008-05-11,2.62, 6.97, -1.92, 1.98, 1.66, 7.33, repro,
2008-05-12,1.58, 5.32, 5.48, 2.06, 1.77, 7.81, repro,
2008-05-13,3.82, 6.71, 0.26, 1.96, 1.59, 7.15, repro,
2008-05-14,3.91, 6.26, -3.28, 1.97, 1.61, 7.22, repro,
2008-05-15,2.32, 7.32, -7.73, 1.97, 1.64, 7.35, repro,
2008-05-16,0.85, 11.58, 1.44, 1.97, 1.63, 7.35, repro,
2008-05-17,3.25, 5.57, -2.53, 2.01, 1.68, 7.48, repro,
2008-05-18,2.65, 5.47, -0.56, 2.03, 1.68, 7.56, repro,
2008-05-19,2.99, 6.78, 0.93, 1.97, 1.64, 7.38, repro,
2008-05-20,2.13, 6.77, -1.28, 1.93, 1.61, 7.12, repro,
2008-05-21,1.95, 7.24, 1.95, 1.96, 1.65, 7.39, repro,
2008-05-22,1.12, 6.30, 14.28, 1.96, 1.66, 7.42, repro,
2008-05-23,1.82, 6.66, 12.66, 1.98, 1.69, 7.45, repro,
2008-05-24,1.90, 6.43, 1.99, 1.96, 1.65, 7.33, repro,
2008-05-25,3.34, 6.42, 2.55, 1.99, 1.63, 7.27, repro,
2008-05-26,2.03, 6.93, 2.42, 1.97, 1.65, 7.29, repro,
2008-05-27,1.75, 6.37, 1.22, 2.00, 1.66, 7.50, repro,
2008-05-28,0.97, 6.90, 4.33, 2.02, 1.75, 7.69, repro,
2008-05-29,1.69, 6.03, 1.37, 2.31, 2.00, 8.82, repro,
2008-05-30,2.92, 7.18, 3.47, 2.00, 1.65, 7.38, repro,
2008-05-31,2.19, 7.04, -3.56, 1.98, 1.67, 7.43, repro,
2008-06-01,2.13, 7.29, -1.92, 1.97, 1.65, 7.42, repro,
2008-06-02,2.43, 7.40, 0.99, 1.97, 1.68, 7.54, repro,
2008-06-03,0.17, 6.71, 0.57, 2.44, 2.18, 9.65, repro,
2008-06-05,-5.15, -7.35, 30.41, 14.38, 15.61, 58.83, repro,
2008-06-06,0.01, 8.03, -1.74, 5.75, 4.96, 23.75, repro,
2008-06-07,2.68, 4.49, 10.18, 1.98, 1.72, 7.58, repro,
2008-06-08,3.26, 4.85, 7.45, 1.98, 1.67, 7.48, repro,
2008-06-09,3.43, 6.05, 2.03, 1.94, 1.63, 7.32, repro,
2008-06-10,2.64, 5.82, 0.41, 2.01, 1.67, 7.46, repro,
2008-06-11,3.27, 4.76, -3.38, 1.96, 1.63, 7.25, repro,
2008-06-12,2.44, 5.17, 0.83, 1.95, 1.67, 7.35, repro,
2008-06-13,4.00, 5.96, -6.30, 1.96, 1.64, 7.34, repro,
2008-06-14,3.03, 5.41, -4.20, 2.00, 1.65, 7.47, repro,
2008-06-15,3.45, 6.36, -5.37, 2.01, 1.66, 7.47, repro,
2008-06-16,2.95, 4.98, -2.21, 1.96, 1.64, 7.34, repro,
2008-06-17,3.17, 4.41, -8.66, 1.93, 1.62, 7.22, repro,
2008-06-20,3.45, 3.90, -4.29, 1.95, 1.62, 7.24, repro,
2008-06-21,5.01, 4.31, -5.84, 1.98, 1.68, 7.46, repro,
2008-06-22,1.87, 3.82, -7.05, 1.98, 1.67, 7.43, repro,
2008-06-23,3.34, 1.96, -4.58, 1.99, 1.68, 7.34, repro,
2008-06-24,4.36, 2.60, -1.33, 2.01, 1.67, 7.37, repro,
2008-06-25,3.52, 2.88, -5.25, 1.97, 1.65, 7.38, repro,
2008-06-26,4.30, 2.58, 5.83, 2.06, 1.75, 7.62, repro,
2008-06-27,3.43, 1.22, -0.21, 1.95, 1.65, 7.38, repro,
2008-06-28,3.90, 4.18, -3.20, 1.96, 1.66, 7.23, repro,
2008-06-29,4.57, 2.27, -2.96, 2.00, 1.68, 7.41, repro,
2008-06-30,3.34, 1.58, -5.15, 2.04, 1.65, 7.58, repro,
2008-07-01,2.34, 0.91, -1.43, 2.06, 1.73, 7.61, repro,
2008-07-02,3.90, -0.18, -5.91, 2.00, 1.66, 7.48, repro,
2008-07-03,4.62, 0.32, -3.56, 1.94, 1.65, 7.29, repro,
2008-07-04,3.14, 1.07, 4.18, 2.12, 1.66, 7.67, repro,
2008-07-05,5.19, 2.30, 1.66, 1.97, 1.64, 7.34, repro,
2008-07-06,3.50, 1.32, 1.47, 1.99, 1.70, 7.48, repro,
2008-07-07,3.65, -1.27, 0.67, 2.01, 1.74, 7.61, repro,
2008-07-08,4.97, 0.06, -5.97, 1.96, 1.65, 7.34, repro,
2008-07-09,2.96, 0.54, -1.60, 1.96, 1.65, 7.32, repro,
2008-07-10,3.86, -0.53, -3.68, 2.14, 1.72, 8.00, repro,
2008-07-11,3.85, -1.77, -2.75, 2.07, 1.73, 7.66, repro,
2008-07-12,5.46, -1.57, -6.39, 2.05, 1.75, 7.59, repro,
2008-07-13,5.83, -0.55, -8.22, 1.98, 1.69, 7.45, repro,
2008-07-14,5.58, -0.44, -10.10, 1.99, 1.70, 7.36, repro,
2008-07-15,4.26, -1.03, -6.85, 1.96, 1.65, 7.28, repro,
2008-07-16,3.29, -2.62, -3.75, 1.95, 1.63, 7.27, repro,
2008-07-17,3.36, -1.08, -8.67, 1.97, 1.65, 7.43, repro,
2008-07-18,3.23, -3.32, 9.16, 2.05, 1.70, 7.69, repro,
2008-07-19,4.37, -1.77, 1.80, 2.00, 1.69, 7.50, repro,
2008-07-20,2.90, -1.31, -2.89, 1.95, 1.64, 7.33, repro,
2008-07-21,2.41, -1.61, -1.54, 1.98, 1.69, 7.50, repro,
2008-07-22,2.32, -1.97, -9.00, 1.98, 1.69, 7.53, repro,
2008-07-23,2.35, -0.40, 3.63, 2.01, 1.70, 7.65, repro,
2008-07-24,2.30, -3.80, -2.77, 1.94, 1.65, 7.30, repro,
2008-07-25,8.55, -7.67, 2.89, 5.45, 5.47, 22.42, repro,
2008-07-30,5.06, -4.55, 3.43, 4.62, 3.60, 18.18, repro,
2008-08-01,2.21, -2.08, 0.10, 1.94, 1.61, 7.18, repro,
2008-08-02,3.63, -5.24, 3.35, 1.96, 1.64, 7.38, repro,
2008-08-03,2.49, -2.13, -2.72, 2.01, 1.68, 7.59, repro,
2008-08-04,2.57, -1.79, 0.20, 2.51, 2.20, 9.66, repro,
2008-08-05,1.65, -1.21, -8.28, 1.98, 1.71, 7.58, repro,
2008-08-06,4.03, -2.81, -10.14, 2.03, 1.64, 7.47, repro,
2008-08-07,0.76, -2.50, 4.04, 2.03, 1.68, 7.41, repro,
2008-08-08,5.02, -5.71, 6.66, 1.98, 1.68, 7.38, repro,
2008-08-09,3.98, -2.07, -8.81, 1.93, 1.62, 7.19, repro,
2008-08-10,3.09, -2.71, -2.90, 1.92, 1.62, 7.18, repro,
2008-08-11,2.20, -1.69, -7.66, 2.22, 1.87, 8.34, repro,
2008-08-12,2.91, -2.08, -3.59, 1.95, 1.62, 7.23, repro,
2008-08-13,1.88, -4.39, 2.77, 1.98, 1.61, 7.27, repro,
2008-08-14,3.93, -3.25, -0.78, 1.98, 1.71, 7.57, repro,
2008-08-15,2.36, -3.29, -7.89, 2.18, 1.83, 8.18, repro,
2008-08-16,21.29, -27.82, 115.75, 101.57, 137.44, 241.44, repro,
2008-08-17,9.60, 12.30, -4.97, 8.03, 7.23, 27.14, repro,
2008-08-18,0.77, -3.59, 5.57, 6.51, 5.82, 21.31, repro,
2008-08-19,1.96, -3.48, 14.70, 2.99, 2.29, 10.26, repro,
2008-08-20,3.93, -1.46, -1.81, 2.77, 2.34, 10.19, repro,
2008-08-21,4.68, -0.93, -1.20, 3.33, 2.75, 12.63, repro,
2008-08-22,3.95, -0.88, -10.95, 3.37, 2.90, 11.77, repro,
2008-08-23,1.55, -1.89, -4.57, 2.66, 2.30, 10.13, repro,
2008-08-24,0.14, -7.52, 2.11, 2.89, 2.44, 10.26, repro,
2008-08-25,-5.80, -7.60, 25.30, 11.10, 6.64, 29.97, repro,
2008-08-26,2.39, -1.15, -9.30, 2.46, 2.00, 9.13, repro,
2008-08-27,4.75, -2.01, 1.76, 2.03, 1.71, 7.65, repro,
2008-08-28,4.79, -2.30, 1.76, 2.04, 1.68, 7.61, repro,
2008-08-29,2.50, -1.84, -6.61, 2.00, 1.72, 7.67, repro,
2008-08-30,3.10, -2.87, 1.65, 1.95, 1.66, 7.31, repro,
2008-08-31,1.08, -1.37, 6.03, 1.96, 1.67, 7.32, repro,
2008-09-01,2.18, -1.74, -9.85, 1.95, 1.67, 7.38, repro,
2008-09-02,3.43, -1.57, -12.49, 1.93, 1.64, 7.21, repro,
2008-09-03,4.76, -2.13, -2.16, 1.99, 1.71, 7.59, repro,
2008-09-04,3.39, -4.05, -5.30, 2.10, 1.70, 7.82, repro,
2008-09-05,2.75, -2.85, -6.49, 2.08, 1.75, 7.90, repro,
2008-09-06,3.03, -3.52, -10.89, 1.94, 1.64, 7.22, repro,
2008-09-07,2.85, -3.66, -6.61, 1.95, 1.66, 7.42, repro,
2008-09-08,2.93, -5.00, -8.78, 2.03, 1.72, 7.64, repro,
2008-09-09,3.04, -2.90, 5.03, 2.00, 1.66, 7.54, repro,
2008-09-10,2.92, -4.20, -5.44, 2.12, 1.74, 7.90, repro,
2008-09-11,1.60, -4.30, -4.71, 2.02, 1.74, 7.68, repro,
2008-09-12,3.05, -2.32, -3.21, 2.13, 1.95, 8.28, repro,
2008-09-13,3.59, -3.00, -6.69, 2.18, 1.75, 8.06, repro,
2008-09-14,2.43, -2.82, -8.14, 2.07, 1.78, 7.94, repro,
2008-09-15,1.08, -3.69, -7.09, 1.99, 1.65, 7.38, repro,
2008-09-16,2.02, -0.83, -1.29, 2.01, 1.68, 7.52, repro,
2008-09-17,2.16, -2.37, -18.04, 2.02, 1.66, 7.42, repro,
2008-09-18,0.01, -2.50, -9.23, 1.94, 1.60, 7.18, repro,
2008-09-19,2.39, -3.43, -8.41, 1.94, 1.61, 7.16, repro,
2008-09-20,1.90, -3.38, -0.27, 1.94, 1.60, 7.16, repro,
2008-09-21,2.50, -3.62, -7.37, 1.96, 1.65, 7.31, repro,
2008-09-22,2.53, -4.42, -10.19, 1.96, 1.65, 7.30, repro,
2008-09-23,1.14, -4.74, -5.03, 1.97, 1.62, 7.27, repro,
2008-09-24,1.65, -3.79, -8.00, 2.05, 1.74, 7.78, repro,
2008-09-25,2.12, -3.12, -5.31, 1.94, 1.65, 7.29, repro,
2008-09-26,1.55, -2.87, -2.84, 1.93, 1.61, 7.15, repro,
2008-09-27,1.93, -4.04, -3.12, 2.04, 1.81, 7.68, repro,
2008-09-28,2.50, -5.55, -10.10, 1.94, 1.64, 7.26, repro,
2008-09-29,1.90, -4.60, -6.94, 1.95, 1.66, 7.31, repro,
2008-09-30,2.51, -3.99, -9.26, 1.96, 1.64, 7.31, repro,
2008-10-01,2.33, -3.50, -5.10, 1.94, 1.60, 7.17, repro,
2008-10-02,2.77, -3.43, -19.41, 2.33, 1.89, 8.47, repro,
2008-10-03,2.49, -5.71, -4.31, 2.16, 1.70, 7.83, repro,
2008-10-04,1.72, -6.08, -6.76, 1.94, 1.62, 7.19, repro,
2008-10-05,2.16, -5.15, -1.82, 1.92, 1.61, 7.14, repro,
2008-10-06,1.41, -3.07, -1.05, 1.98, 1.62, 7.28, repro,
2008-10-07,2.13, -3.93, -6.58, 2.00, 1.69, 7.46, repro,
2008-10-08,2.09, -5.07, -7.88, 1.96, 1.64, 7.26, repro,
2008-10-09,1.55, -6.02, -4.58, 1.94, 1.63, 7.24, repro,
2008-10-10,0.63, -5.57, -8.54, 1.94, 1.62, 7.20, repro,
2008-10-11,1.55, -4.49, -6.01, 1.95, 1.62, 7.24, repro,
2008-10-12,1.76, -4.50, -6.30, 1.93, 1.59, 7.13, repro,
2008-10-13,1.61, -6.17, -8.48, 1.95, 1.61, 7.19, repro,
2008-10-14,2.06, -5.72, -8.45, 1.94, 1.61, 7.20, repro,
2008-10-15,0.62, -5.57, -12.16, 1.98, 1.62, 7.36, repro,
2008-10-16,1.24, -3.40, -12.42, 1.99, 1.62, 7.42, repro,
2008-10-17,1.42, -3.34, -11.63, 1.96, 1.61, 7.28, repro,
2008-10-18,1.57, -5.18, -13.33, 1.94, 1.59, 7.15, repro,
2008-10-19,2.09, -5.48, -12.77, 1.92, 1.60, 7.07, repro,
2008-10-20,0.35, -5.77, -5.68, 2.03, 1.68, 7.47, repro,
2008-10-21,-0.23, -4.44, -6.96, 1.93, 1.61, 7.15, repro,
2008-10-22,1.00, -3.33, -10.32, 1.94, 1.62, 7.21, repro,
2008-10-23,2.18, -5.17, -8.99, 1.96, 1.62, 7.27, repro,
2008-10-24,1.90, -5.88, -4.10, 1.92, 1.60, 7.08, repro,
2008-10-25,1.76, -6.29, -5.81, 1.93, 1.62, 7.16, repro,
2008-10-26,0.66, -5.11, -15.15, 1.94, 1.60, 7.15, repro,
2008-10-27,0.83, -4.41, -15.43, 1.93, 1.62, 7.19, repro,
2008-10-28,2.82, -4.11, -17.22, 2.13, 1.71, 7.72, repro,
2008-10-29,2.66, -5.25, -11.18, 2.10, 1.80, 7.89, repro,
2008-10-30,2.01, -5.87, -8.89, 1.92, 1.61, 7.13, repro,
2008-10-31,-0.18, -6.18, -13.64, 2.07, 1.81, 7.94, repro,
2008-11-01,0.68, -5.37, -8.89, 1.94, 1.63, 7.20, repro,
2008-11-02,1.81, -5.73, -7.17, 1.98, 1.67, 7.41, repro,
2008-11-03,2.05, -5.73, 0.61, 2.00, 1.70, 7.45, repro,
2008-11-04,3.12, -6.19, -1.52, 1.96, 1.66, 7.27, repro,
2008-11-05,0.68, -5.76, -3.13, 1.94, 1.63, 7.28, repro,
2008-11-06,-0.46, -4.61, -9.63, 1.99, 1.70, 7.48, repro,
2008-11-07,0.92, -5.63, -11.46, 2.00, 1.70, 7.56, repro,
2008-11-08,1.70, -5.44, -4.68, 1.99, 1.70, 7.48, repro,
2008-11-09,1.67, -5.83, 2.36, 1.99, 1.71, 7.45, repro,
2008-11-10,1.84, -6.86, -4.76, 1.95, 1.63, 7.24, repro,
2008-11-11,1.17, -6.37, -1.42, 2.00, 1.75, 7.52, repro,
2008-11-12,-0.01, -5.83, -6.79, 2.03, 1.71, 7.60, repro,
2008-11-13,1.24, -6.24, -0.52, 2.00, 1.71, 7.53, repro,
2008-11-14,3.42, -5.30, -2.50, 2.17, 1.82, 8.10, repro,
2008-11-15,0.84, -5.38, -8.65, 2.03, 1.72, 7.58, repro,
2008-11-16,1.39, -6.41, -3.02, 2.03, 1.75, 7.63, repro,
2008-11-17,1.28, -4.89, -10.40, 2.11, 1.82, 7.89, repro,
2008-11-18,1.40, -5.79, -16.85, 2.10, 1.79, 7.89, repro,
2008-11-19,1.61, -5.02, -13.40, 2.02, 1.70, 7.51, repro,
2008-11-20,2.39, -4.56, -14.17, 2.03, 1.74, 7.60, repro,
2008-11-21,2.09, -6.51, -11.04, 2.19, 1.80, 8.18, repro,
2008-11-22,0.69, -6.55, -7.98, 2.08, 1.79, 7.85, repro,
2008-11-23,0.84, -6.10, -8.84, 2.06, 1.78, 7.82, repro,
2008-11-24,0.97, -4.78, -9.28, 2.17, 1.86, 8.09, repro,
2008-11-25,2.43, -4.45, -5.25, 2.03, 1.72, 7.65, repro,
2008-11-26,1.45, -5.95, -7.77, 1.95, 1.64, 7.29, repro,
2008-11-27,0.42, -6.52, -15.73, 1.94, 1.63, 7.25, repro,
2008-11-28,0.70, -8.55, 3.94, 1.99, 1.71, 7.53, repro,
2008-11-29,0.36, -5.77, -6.67, 2.07, 1.82, 7.80, repro,
2008-11-30,1.23, -6.86, -4.93, 1.99, 1.66, 7.37, repro,
2008-12-01,2.66, -4.64, -6.78, 2.00, 1.68, 7.43, repro,
2008-12-02,0.30, -5.61, -3.01, 2.02, 1.72, 7.60, repro,
2008-12-03,-0.81, -5.89, -5.95, 1.96, 1.68, 7.36, repro,
2008-12-04,0.08, -5.06, -13.28, 2.00, 1.72, 7.50, repro,
2008-12-05,0.64, -3.82, -5.16, 2.01, 1.72, 7.51, repro,
2008-12-06,2.02, -4.83, -7.52, 2.03, 1.75, 7.60, repro,
2008-12-07,1.33, -4.21, -6.20, 2.07, 1.86, 7.90, repro,
2008-12-08,-0.91, -5.58, -6.68, 2.00, 1.68, 7.52, repro,
2008-12-09,-1.49, -5.13, -4.44, 1.92, 1.62, 7.19, repro,
2008-12-10,0.51, -4.03, -10.94, 2.23, 1.79, 8.31, repro,
2008-12-11,1.81, -4.91, -10.65, 2.75, 2.01, 9.49, repro,
2008-12-12,1.90, -6.26, -8.33, 2.23, 1.82, 8.39, repro,
2008-12-13,2.10, -5.64, -11.65, 4.01, 2.93, 12.65, repro,
2008-12-15,-1.64, -6.09, 5.49, 5.36, 4.76, 20.94, repro,
2008-12-16,-0.03, -4.79, -2.92, 1.92, 1.59, 7.01, repro,
2008-12-17,0.12, -4.89, -6.12, 1.97, 1.61, 7.20, repro,
2008-12-18,-2.73, -5.67, -11.31, 1.94, 1.63, 7.17, repro,
2008-12-19,1.15, -3.75, -14.94, 2.04, 1.72, 7.58, repro,
2008-12-20,-0.59, -3.95, -8.25, 1.98, 1.63, 7.34, repro,
2008-12-21,-0.98, -6.21, -7.95, 1.94, 1.63, 7.19, repro,
2008-12-22,-0.64, -4.24, -6.69, 2.06, 1.66, 7.55, repro,
2008-12-23,-0.68, -6.38, -5.56, 1.98, 1.64, 7.30, repro,
2008-12-24,0.35, -4.92, -6.21, 1.98, 1.63, 7.33, repro,
2008-12-25,-0.01, -4.08, -3.90, 1.96, 1.65, 7.35, repro,
2008-12-26,-1.35, -5.44, -4.61, 1.96, 1.65, 7.26, repro,
2008-12-27,0.48, -6.12, -1.97, 1.98, 1.69, 7.37, repro,
2008-12-28,0.06, -5.42, -8.53, 1.98, 1.64, 7.33, repro,
2008-12-29,0.71, -5.58, -9.97, 1.94, 1.63, 7.21, repro,
2008-12-30,-0.13, -4.97, -13.80, 1.95, 1.63, 7.20, repro,
2008-12-31,-0.85, -5.44, -10.81, 1.93, 1.62, 7.08, repro,
2009-01-01,0.66, -5.94, -4.29, 1.94, 1.62, 7.12, repro,
2009-01-02,-0.64, -5.63, -2.74, 1.97, 1.64, 7.31, repro,
2009-01-03,-0.45, -6.51, -5.11, 1.98, 1.67, 7.43, repro,
2009-01-04,-0.05, -5.18, -5.60, 1.96, 1.64, 7.22, repro,
2009-01-05,-0.18, -5.26, -5.67, 1.99, 1.67, 7.39, repro,
2009-01-06,-0.38, -5.09, -2.21, 1.93, 1.63, 7.15, repro,
2009-01-07,-1.71, -4.75, -6.83, 1.97, 1.66, 7.37, repro,
2009-01-08,0.23, -5.39, -8.98, 1.96, 1.68, 7.34, repro,
2009-01-09,-0.86, -6.25, -7.48, 2.00, 1.71, 7.55, repro,
2009-01-10,-0.18, -5.31, -13.61, 1.93, 1.64, 7.15, repro,
2009-01-11,0.74, -4.98, -14.21, 1.93, 1.63, 7.16, repro,
2009-01-12,0.05, -4.85, -14.15, 1.97, 1.67, 7.28, repro,
2009-01-13,0.08, -5.37, -12.86, 1.94, 1.64, 7.13, repro,
2009-01-14,-1.15, -5.75, -11.50, 1.97, 1.66, 7.27, repro,
2009-01-15,-0.70, -5.25, -13.38, 1.98, 1.67, 7.33, repro,
2009-01-16,0.27, -4.72, -12.88, 1.96, 1.66, 7.25, repro,
2009-01-17,0.15, -4.74, -11.26, 1.89, 1.61, 7.01, repro,
2009-01-18,-0.15, -4.81, -13.49, 1.89, 1.62, 7.09, repro,
2009-01-19,-1.19, -5.11, -9.39, 1.94, 1.65, 7.16, repro,
2009-01-20,-1.49, -4.27, -13.10, 1.92, 1.64, 7.22, repro,
2009-01-21,-0.66, -4.61, -8.78, 1.94, 1.65, 7.23, repro,
2009-01-22,-1.18, -5.77, -2.53, 1.91, 1.62, 7.13, repro,
2009-01-23,0.23, -5.05, -8.75, 1.88, 1.60, 6.99, repro,
2009-01-24,-1.10, -4.58, -11.17, 1.94, 1.63, 7.18, repro,
2009-01-25,-0.31, -1.65, -7.83, 1.98, 1.67, 7.39, repro,
2009-01-26,0.82, -0.52, -7.59, 1.96, 1.68, 7.46, repro,
2009-01-27,-0.07, -2.50, -3.63, 1.92, 1.64, 7.23, repro,
2009-01-28,-0.25, -0.62, -9.93, 1.90, 1.64, 7.17, repro,
2009-01-29,-0.55, -0.51, -9.63, 1.90, 1.62, 7.12, repro,
2009-01-30,-0.02, 0.34, -9.58, 1.90, 1.62, 7.07, repro,
2009-01-31,0.63, 0.74, -4.03, 1.92, 1.65, 7.17, repro,
2009-02-01,0.54, 0.16, -1.80, 1.93, 1.65, 7.26, repro,
2009-02-02,1.08, -0.53, -10.42, 1.93, 1.67, 7.29, repro,
2009-02-03,1.16, 1.02, -14.86, 1.91, 1.64, 7.11, repro,
2009-02-04,0.82, 1.39, -11.27, 1.91, 1.63, 7.11, repro,
2009-02-05,1.93, 0.95, -8.90, 2.08, 1.78, 7.80, repro,
2009-02-06,0.80, 1.10, -2.32, 2.00, 1.71, 7.55, repro,
2009-02-07,1.94, 1.09, -2.10, 1.93, 1.64, 7.23, repro,
2009-02-08,0.14, 1.33, -3.71, 2.01, 1.69, 7.35, repro,
2009-02-09,0.28, 0.51, 4.22, 2.13, 1.80, 7.87, repro,
2009-02-10,0.73, 0.30, -1.03, 1.90, 1.61, 6.97, repro,